Regional Weather Roundup
Issued by NWS Mt. Holly, NJ

Home | Current Version | Previous Version | Text Only | Print | Product List | Glossary On
Versions: 1 2 3 4 5 6 7 8 9 10 11 12 13 14 15 16 17 18 19 20 21 22 23 24 25 26 27
000
ASUS41 KPHI 310112
RWRPHI

REGIONAL WEATHER ROUNDUP
NATIONAL WEATHER SERVICE MOUNT HOLLY NJ
900 PM EDT SAT JUL 30 2016

NOTE:  "FAIR" INDICATES FEW OR NO CLOUDS BELOW 12,000 FEET WITH NO
SIGNIFICANT WEATHER AND/OR OBSTRUCTIONS TO VISIBILITY.

 * = STATION DOES NOT REPORT PRECIPITATION (E.G. RAIN, SNOW, ETC.)
        OR FOG.

NJZ015>026-310200-
SOUTHERN NEW JERSEY

CITY           SKY/WX    TMP DP  RH WIND       PRES   REMARKS
POMONA         CLOUDY    77  71  82 SE7       30.02R
WILDWOOD*        N/A    N/A N/A N/A MISG        N/A
MILLVILLE      CLOUDY    77  71  82 E3        30.01R
WRIGHTSTOWN    CLOUDY    75  73  94 SE3       30.00R
MOUNT HOLLY    LGT RAIN  75  73  93 E5        30.01S
TRENTON        RAIN      73  71  93 NE3       30.02S FOG

$$
NJZ001>014-310200-
NORTHERN NEW JERSEY

CITY           SKY/WX    TMP DP  RH WIND       PRES   REMARKS
SUSSEX         LGT RAIN  70  69  97 NE3       30.05S
ANDOVER*         N/A     70  68  93 CALM      30.05S
MORRISTOWN     RAIN      72  70  94 NE5       30.05S
NEWARK         LGT RAIN  74  73  97 SE3       30.03S
TETERBORO      LGT RAIN  75  72  90 CALM      30.03S
CALDWELL       LGT RAIN  73  71  93 CALM      30.05S FOG
SOMERVILLE     LGT RAIN  72  71  97 NE3       30.01F FOG
ALLAIRE*       LGT RAIN  75  74  96 E3        30.05R
TOMS RIVER*    CLOUDY    77  73  87 SE3       30.03S

$$
PAZ043-044-047-054-055-060>062-066>071-310200-
EASTERN PENNSYLVANIA

CITY           SKY/WX    TMP DP  RH WIND       PRES   REMARKS
PHILADELPHIA   LGT RAIN  77  74  90 SE6       30.01S
NORTH PHILA    LGT RAIN  76  75  97 E7        30.02S
BLUE BELL*     CLOUDY    72  72 100 E5        30.01S
DOYLESTOWN     LGT RAIN  70  70 100 CALM      30.02S
QUAKERTOWN*    CLOUDY    72  72 100 CALM      30.02F
PERKASIE*      LGT RAIN  70  70 100 E6        30.03S
POTTSTOWN      LGT RAIN  71  70  96 CALM      30.03R
LANCASTER      CLOUDY    71  70  96 NE7       29.99R
COATESVILLE    LGT RAIN  72  70  94 SE7       30.02S
READING        CLOUDY    71  67  87 CALM      29.99R
ALLENTOWN      LGT RAIN  72  70  94 NE6       30.02S
MOUNT POCONO   LGT RAIN  65  65 100 SE9       30.08S FOG
HAZLETON       DRIZZLE   68  66  94 SE5       30.08R
LEHIGHTON      CLOUDY    70  70 100 CALM      30.03S
WILKES BARRE   LGT RAIN  69  66  90 NE7       30.03S

$$
DEZALL-MDZ008-012-015-019-020-310200-
DELAWARE AND EASTERN MARYLAND

CITY           SKY/WX    TMP DP  RH WIND       PRES   REMARKS
WILMINGTON     LGT RAIN  76  71  85 SE12      29.99F
DOVER          CLEAR     78  74  88 SE6       29.97S
GEORGETOWN     CLOUDY    76  72  87 SE5       29.99R
EASTON         MOCLDY    79  73  83 SE6       30.01R
OCEAN CITY     CLOUDY    78  73  84 CALM      29.98R
WALLOPS ISLAND FAIR      79  74  84 SE3       29.96F
CAMBRIDGE      MOCLDY    75  70  83 SE3       29.97S

$$
PAZ001-021-NYZ056-072-MDZ011-DCZ001-310200-
OTHER NEARBY LOCATIONS

CITY           SKY/WX    TMP DP  RH WIND       PRES   REMARKS
HARRISBURG     CLOUDY    74  73  97 E10       29.97R
STATE COLLEGE  CLOUDY    70  68  94 NE7       30.00S
WILLIAMSPORT   CLOUDY    73  68  84 NE3       29.98R
BINGHAMTON     CLOUDY    66  65  96 NE5       30.06S FOG
NEW YORK CITY  LGT RAIN  74  72  93 CALM      30.07S FOG
BALTIMORE      TSTM      72  71  97 CALM      29.98R VSB 1/2
WASHINGTON DC  TSTM      75  71  87 W6        29.98S

$$




USA.gov is the U.S. government's official web portal to all federal, state and local government web resources and services.